Location: Borbetomagus
(49.6328°N, 8.3592°E)
Time: 01:57:04
(UTC+00:00)

Cosmos 1633 Rocket - Pass Details

Date: 19 May 2025
Orbit: 600 x 618 km, 82.5° (Epoch: 23 June)

Event Time Altitude Azimuth Distance (km) Brightness Sun altitude
Rises 22:53:01 0° 358° (N) 2,885 8.1 -20.1°
Reaches altitude 10° 22:55:30 10° 9° (N) 1,972 6.7 -20.1°
Maximum altitude 22:59:19 29° 71° (ENE) 1,123 4.5 -20.2°
Enters shadow 23:00:55 23° 107° (ESE) 1,311 4.5 -20.2°
